[[{"header":{"parameterUnit":"m.s-1","parameterCategory":1,"la1":30.2991,"la2":30.254,"lo1":-89.0895,"lo2":-89.0444,"dy":0.0017,"dx":0.0017,"nx":28,"ny":28,"refTime":"2025-01-07T09:00:00:Z","depth":0,"parameterNumber":2,"parameterNumberName":"U-component_of_WINDS"},"data":[0,0,0,0,0,0,0,0,0,0,0,0,0,0,0,0,0,0,0,0,0,0,0,0,0,0,0,0,0,0,0,0,0,0,0,0,0,0,0,0,0,0,0,0,0,0,0,0,0,0,0,0,0,0,0,0,0,0,-1.8993,-1.8993,0,-1.9043,-1.9044,-1.9044,-1.9001,-1.8999,-1.8997,-1.8996,-1.9049,-1.9052,-1.9055,0,0,0,0,0,0,0,0,0,0,0,0,0,-1.8859,-1.8862,-1.8993,-1.8993,-1.8994,-1.9043,-1.9044,-1.9045,-1.9001,-1.8999,-1.8997,-1.8995,-1.9048,-1.9051,-1.9055,0,0,0,0,0,0,0,0,0,0,0,0,0,-1.8914,-1.8863,-1.8992,-1.8978,-1.8977,-1.9043,-1.9044,-1.9045,-1.9002,-1.8999,-1.8996,-1.8994,-1.9047,-1.9051,-1.9056,-1.9138,0,0,-1.907,-1.9072,0,0,0,0,0,0,0,0,-1.8911,-1.8919,-1.898,-1.8979,-1.8979,-1.9013,-1.9016,-1.9076,-1.9003,-1.8993,-1.8996,-1.8993,-1.9039,-1.9044,-1.906,-1.9141,-1.9143,-1.907,-1.9073,-1.9075,-1.9076,0,0,0,0,0,0,0,-1.8907,-1.8917,-1.9013,-1.8981,-1.898,-1.8969,-1.8974,-1.9027,-1.903,-1.8993,-1.899,-1.8997,-1.9038,-1.9055,-1.9061,-1.9144,-1.907,-1.9074,-1.9077,-1.9079,-1.9295,-1.9298,0,0,0,0,0,0,-1.8905,-1.8914,-1.9011,-1.9014,-1.8937,-1.8974,-1.8979,-1.9005,-1.903,-1.9031,-1.8999,-1.8995,-1.9049,-1.9055,-1.9062,-1.9161,-1.9075,-1.9079,-1.9082,-1.9292,-1.9296,-1.9299,0,0,0,0,0,0,-1.8902,-1.8914,-1.9009,-1.8963,-1.8974,-1.8979,-1.9008,-1.9007,-1.9024,-1.9034,-1.9034,-1.9016,-1.9047,-1.9056,-1.912,-1.9163,-1.9081,-1.9086,-1.9289,-1.9293,-1.9298,-1.936,0,0,0,0,0,0,-1.8899,-1.8913,-1.8945,-1.8964,-1.8977,-1.9066,-1.9011,-1.901,-1.9032,-1.9027,-1.905,-1.9051,-1.9045,-1.9113,-1.9124,-1.9167,-1.9089,-1.9285,-1.9291,-1.9296,-1.9354,-1.9366,-1.9376,0,0,0,0,0,-1.8894,-1.896,-1.8947,-1.8958,-1.9016,-1.9068,-1.9076,-1.9067,-1.9036,-1.9068,-1.9074,-1.9051,-1.9156,-1.912,-1.9132,-1.9178,-1.9282,-1.9289,-1.9296,-1.9349,-1.9363,-1.9376,0,0,0,0,0,0,-1.8946,-1.8963,-1.8948,-1.9022,-1.9044,-1.9061,-1.9101,-1.9083,-1.9114,-1.9108,-1.9097,-1.9102,-1.917,-1.918,-1.914,-1.9259,-1.9214,-1.9223,-1.925,-1.9264,-1.9275,-1.9272,-1.9093,0,0,0,0,0,-1.8966,-1.9007,-1.9019,-1.9084,-1.9095,-1.9096,-1.9118,-1.911,-1.9132,-1.9141,-1.9152,-1.9175,-1.9213,-1.9239,-1.9274,-1.9354,-1.9359,-1.9391,-1.9402,-1.9411,-1.942,-1.9464,-1.9479,-1.9321,-1.9321,-1.9321,0,0,-1.9009,-1.9023,-1.9049,-1.9095,-1.9111,-1.9153,-1.9104,-1.9151,-1.9183,-1.9149,-1.921,-1.9219,-1.9243,-1.9316,-1.9348,-1.9326,-1.9464,-1.942,-1.9427,-1.9431,-1.9472,-1.9487,-1.95,-1.9326,-1.9325,-1.9324,0,0,-1.9108,-1.9122,-1.9178,-1.9195,-1.9219,-1.9219,-1.9232,-1.9252,-1.9256,-1.9317,-1.9292,-1.933,-1.9395,-1.9414,-1.9432,-1.9537,-1.9518,-1.9549,-1.9608,-1.965,-1.9662,-1.9673,-1.9712,-1.9726,-1.9558,-1.9558,-1.9558,0,-1.9158,-1.9221,-1.9209,-1.9258,-1.9279,-1.9249,-1.9306,-1.9322,-1.9358,-1.9373,-1.9347,-1.9429,-1.9443,-1.952,-1.9546,-1.9561,-1.9576,-1.9548,-1.9661,-1.9672,-1.9682,-1.9719,-1.9734,-1.9562,-1.9561,-1.9561,-1.956,0,-1.9281,-1.9325,-1.9367,-1.9402,-1.9427,-1.948,-1.9476,-1.9503,-1.9492,-1.9495,-1.9557,-1.9573,-1.9612,-1.9629,-1.9618,-1.9704,-1.969,-1.9663,-1.9618,-1.9702,-1.9736,-1.975,-1.9567,-1.9566,-1.9565,-1.9564,0,0,-1.9417,-1.9443,-1.9459,-1.9474,-1.9499,-1.9533,-1.9583,-1.962,-1.9644,-1.9669,-1.9712,-1.9768,-1.9743,-1.9764,-1.9755,-1.9792,-1.9876,-1.9761,-1.9761,-1.9783,-1.9972,-1.9993,-2.001,-1.9862,-1.9864,-1.9866,-1.997,0,-1.9518,-1.9607,-1.9597,-1.9682,-1.9723,-1.9694,-1.9739,-1.9758,-1.9762,-1.9797,-1.98,-1.9841,-1.9805,-1.9817,-1.9852,-1.9858,-1.9914,-1.985,-1.9903,-1.9905,-1.9899,-2.0027,-2.005,-2.0148,-1.9984,-1.9986,-1.9987,0,-1.9649,-1.9678,-1.9767,-1.9785,-1.9801,-1.9841,-1.9875,-1.9908,-1.993,-1.993,-1.9952,-1.9937,-1.9989,-1.9941,-2.0012,-1.9969,-1.9989,-1.9995,-1.9999,-2.0005,-1.9953,-2.0039,-2.0178,-2.0194,-2.0008,-2.0007,-2.0005,0,-1.974,-1.9802,-1.9863,-1.9876,-1.9899,-1.9928,-1.9938,-1.9957,-1.998,-2.0009,-2.0024,-2.0058,-2.0078,-2.0105,-2.0099,-2.0065,-2.0172,-2.0124,-2.0174,-2.0174,-2.02,-2.0198,-2.0346,-2.021,-2.021,-2.0209,-2.0209,0,-1.9856,-1.9911,-1.9904,-1.9942,-2.0004,-1.9992,-2.0053,-2.006,-2.0077,-2.0116,-2.0092,-2.013,-2.0119,-2.0156,-2.0151,-2.0211,-2.022,-2.0222,-2.022,-2.0225,-2.0225,-2.024,-2.0233,-2.0213,-2.0212,-2.0212,-2.0211,0,-1.997,-1.9967,-2.0032,-2.0047,-2.0052,-2.0097,-2.011,-2.0146,-2.0146,-2.0196,-2.0207,-2.0209,-2.025,-2.0247,-2.0294,-2.0291,-2.0365,-2.0355,-2.0358,-2.0357,-2.0408,-2.0404,-2.0572,-2.0594,-2.0442,-2.0443,-2.0444,0,-2.0044,-2.0086,-2.0106,-2.013,-2.0143,-2.0182,-2.0205,-2.0194,-2.0219,-2.0247,-2.0279,-2.0319,-2.035,-2.0418,-2.0424,-2.0459,-2.0451,-2.0507,-2.0456,-2.0459,-2.0453,-2.0451,-2.0456,-2.0518,-2.0519,-2.0521,-2.0522,0,-2.0177,-2.0174,-2.0208,-2.0242,-2.027,-2.0296,-2.0319,-2.034,-2.0332,-2.0361,-2.0404,-2.0428,-2.0475,-2.0515,-2.0549,-2.0559,-2.054,-2.0538,-2.0551,-2.0558,-2.0558,-2.056,-2.0388,-2.0534,-2.0533,-2.0532,-2.0532,-2.0531,-2.0275,-2.0311,-2.0331,-2.037,-2.0386,-2.0408,-2.0443,-2.0448,-2.0483,-2.052,-2.0512,-2.0559,-2.0579,-2.0623,-2.0637,-2.0674,-2.0654,-2.0674,-2.0679,-2.0684,-2.0691,-2.0551,-2.068,-2.068,-2.0679,-2.0679,-2.0679,0,-2.0408,-2.0419,-2.0455,-2.0488,-2.0519,-2.0496,-2.0521,-2.0548,-2.059,-2.0611,-2.0641,-2.069,-2.0728,-2.0736,-2.0773,-2.0801,-2.0793,-2.0811,-2.081,-2.0813,-2.0706,-2.0691,-2.0817,-2.0817,-2.0817,-2.0817,-2.0817,-2.0817,-2.0481,-2.0542,-2.0541,-2.0609,-2.0619,-2.0666,-2.0682,-2.0702,-2.0718,-2.0774,-2.0805,-2.081,-2.0825,-2.0862,-2.0896,-2.0898,-2.0913,-2.0935,-2.0933,-2.0834,-2.082,-2.0807,-2.0793,-2.0938,-2.0938,-2.1037,-2.1037,-2.1038]},{"header":{"parameterUnit":"m.s-1","parameterCategory":1,"la1":30.2991,"la2":30.254,"lo1":-89.0895,"lo2":-89.0444,"dy":0.0017,"dx":0.0017,"nx":28,"ny":28,"refTime":"2025-01-07T09:00:00:Z","depth":0,"parameterNumber":3,"parameterNumberName":"V-component_of_WINDS"},"data":[0,0,0,0,0,0,0,0,0,0,0,0,0,0,0,0,0,0,0,0,0,0,0,0,0,0,0,0,0,0,0,0,0,0,0,0,0,0,0,0,0,0,0,0,0,0,0,0,0,0,0,0,0,0,0,0,0,0,-6.79,-6.7901,0,-6.7989,-6.799,-6.7991,-6.7937,-6.7934,-6.7931,-6.7929,-6.8014,-6.8019,-6.8023,0,0,0,0,0,0,0,0,0,0,0,0,0,-6.7678,-6.7683,-6.79,-6.7901,-6.7902,-6.7988,-6.799,-6.7991,-6.7937,-6.7934,-6.7931,-6.7928,-6.8013,-6.8018,-6.8024,0,0,0,0,0,0,0,0,0,0,0,0,0,-6.7772,-6.7684,-6.79,-6.7886,-6.7885,-6.7988,-6.799,-6.7991,-6.7938,-6.7934,-6.793,-6.7926,-6.8011,-6.8018,-6.8025,-6.8144,0,0,-6.8046,-6.8049,0,0,0,0,0,0,0,0,-6.7766,-6.778,-6.7887,-6.7887,-6.7887,-6.7948,-6.7943,-6.8042,-6.7939,-6.7918,-6.7929,-6.7925,-6.7995,-6.8003,-6.8028,-6.8148,-6.8152,-6.8047,-6.8051,-6.8054,-6.8056,0,0,0,0,0,0,0,-6.776,-6.7776,-6.7935,-6.7888,-6.7888,-6.7873,-6.7882,-6.7961,-6.7976,-6.7919,-6.7916,-6.7927,-6.7994,-6.8021,-6.8029,-6.8153,-6.8046,-6.8053,-6.8057,-6.806,-6.8376,-6.838,0,0,0,0,0,0,-6.7755,-6.7771,-6.7932,-6.7937,-6.7816,-6.788,-6.789,-6.7932,-6.7976,-6.7979,-6.793,-6.7924,-6.8011,-6.8021,-6.8032,-6.8175,-6.8054,-6.806,-6.8064,-6.8372,-6.8377,-6.8382,0,0,0,0,0,0,-6.7751,-6.777,-6.7928,-6.7853,-6.7872,-6.7888,-6.7935,-6.7936,-6.7963,-6.7984,-6.7986,-6.7956,-6.8009,-6.8022,-6.8117,-6.8178,-6.8063,-6.807,-6.8367,-6.8373,-6.8379,-6.8463,0,0,0,0,0,0,-6.7745,-6.7769,-6.7816,-6.7855,-6.7876,-6.8014,-6.7939,-6.794,-6.7976,-6.7969,-6.8008,-6.8011,-6.8007,-6.8107,-6.8124,-6.8185,-6.8075,-6.8362,-6.837,-6.8377,-6.8455,-6.8471,-6.8485,0,0,0,0,0,-6.7737,-6.7835,-6.7819,-6.7838,-6.7936,-6.8018,-6.803,-6.8024,-6.7981,-6.8027,-6.8041,-6.801,-6.8168,-6.8117,-6.8136,-6.82,-6.8358,-6.8367,-6.8377,-6.8448,-6.8468,-6.8485,0,0,0,0,0,0,-6.7801,-6.784,-6.7822,-6.7936,-6.7974,-6.8008,-6.8067,-6.8046,-6.8096,-6.8087,-6.8076,-6.8085,-6.8185,-6.8201,-6.8144,-6.8318,-6.8256,-6.827,-6.8304,-6.8323,-6.8338,-6.8332,-6.8081,0,0,0,0,0,-6.7828,-6.7893,-6.7923,-6.802,-6.804,-6.8051,-6.8086,-6.8079,-6.8117,-6.8132,-6.8153,-6.819,-6.8248,-6.8286,-6.834,-6.8457,-6.8464,-6.851,-6.8525,-6.8537,-6.8549,-6.8612,-6.8632,-6.8413,-6.8413,-6.8412,0,0,-6.7885,-6.7914,-6.7956,-6.8034,-6.8062,-6.8128,-6.8064,-6.8137,-6.8185,-6.8143,-6.8234,-6.825,-6.8291,-6.8397,-6.8445,-6.8414,-6.8612,-6.855,-6.8559,-6.8565,-6.8624,-6.8644,-6.8663,-6.8419,-6.8418,-6.8417,0,0,-6.8023,-6.8052,-6.8137,-6.8167,-6.8212,-6.8218,-6.8239,-6.8277,-6.8286,-6.8379,-6.8348,-6.8404,-6.8505,-6.8535,-6.8563,-6.8713,-6.8686,-6.873,-6.881,-6.8871,-6.8889,-6.8904,-6.8957,-6.8976,-6.8742,-6.8742,-6.8743,0,-6.8088,-6.8188,-6.8182,-6.8258,-6.8292,-6.8259,-6.8343,-6.8372,-6.8432,-6.8456,-6.8421,-6.8547,-6.8572,-6.8684,-6.8721,-6.8745,-6.8767,-6.8726,-6.8887,-6.8902,-6.8916,-6.8967,-6.8987,-6.8748,-6.8747,-6.8747,-6.8746,0,-6.8265,-6.8335,-6.8397,-6.8458,-6.85,-6.8579,-6.8584,-6.8626,-6.8615,-6.8625,-6.8718,-6.8747,-6.8807,-6.8833,-6.8822,-6.8944,-6.8924,-6.8888,-6.8826,-6.8943,-6.899,-6.9009,-6.8755,-6.8753,-6.8752,-6.875,0,0,-6.8445,-6.8503,-6.8526,-6.8553,-6.8601,-6.8654,-6.8731,-6.8791,-6.8828,-6.887,-6.8934,-6.902,-6.8988,-6.902,-6.9012,-6.9065,-6.9182,-6.9023,-6.9024,-6.9052,-6.9318,-6.9345,-6.9367,-6.9164,-6.9168,-6.9171,-6.9315,0,-6.8586,-6.8724,-6.8721,-6.8848,-6.8912,-6.8881,-6.8948,-6.8983,-6.8994,-6.9048,-6.9059,-6.912,-6.9073,-6.9092,-6.9144,-6.9157,-6.9235,-6.9146,-6.9222,-6.9225,-6.9214,-6.9392,-6.942,-6.9554,-6.9333,-6.9336,-6.9338,0,-6.8769,-6.882,-6.8954,-6.8992,-6.9019,-6.908,-6.9135,-6.9188,-6.9227,-6.923,-6.9267,-6.9251,-6.9327,-6.9263,-6.9368,-6.9308,-6.9338,-6.9349,-6.9354,-6.9361,-6.9289,-6.9404,-6.9597,-6.9617,-6.9367,-6.9365,-6.9363,0,-6.8887,-6.8989,-6.9082,-6.9107,-6.9154,-6.9197,-6.9218,-6.9254,-6.929,-6.9338,-6.9361,-6.9416,-6.9446,-6.9488,-6.9487,-6.944,-6.9593,-6.9528,-6.9597,-6.9597,-6.9631,-6.9629,-6.9832,-6.9651,-6.965,-6.965,-6.965,0,-6.9045,-6.9128,-6.9136,-6.9194,-6.9286,-6.9281,-6.9371,-6.9387,-6.9419,-6.9478,-6.9454,-6.9509,-6.9504,-6.9559,-6.9558,-6.9644,-6.9658,-6.9662,-6.9661,-6.9665,-6.9664,-6.9685,-6.9675,-6.9655,-6.9654,-6.9653,-6.9652,0,-6.9193,-6.9202,-6.9302,-6.9339,-6.935,-6.9416,-6.9446,-6.95,-6.9509,-6.9584,-6.9601,-6.9614,-6.9678,-6.968,-6.9753,-6.9752,-6.9858,-6.9846,-6.9846,-6.9843,-6.9912,-6.9906,-7.0136,-7.0166,-6.9965,-6.9967,-6.9968,0,-6.9293,-6.9357,-6.9401,-6.944,-6.9465,-6.9527,-6.9565,-6.9561,-6.9601,-6.9651,-6.9698,-6.976,-6.981,-6.9913,-6.9928,-6.9983,-6.9972,-7.0049,-6.998,-6.9982,-6.9973,-6.997,-6.9976,-7.0062,-7.0065,-7.0066,-7.0068,0,-6.947,-6.9472,-6.9528,-6.9587,-6.9633,-6.9678,-6.972,-6.9753,-6.9754,-6.98,-6.9866,-6.9905,-6.998,-7.0041,-7.0095,-7.0115,-7.0092,-7.009,-7.0108,-7.0113,-7.011,-7.0113,-6.9882,-7.0084,-7.0083,-7.0081,-7.0081,-7.008,-6.9597,-6.9652,-6.9693,-6.9756,-6.9788,-6.9828,-6.9881,-6.9897,-6.9952,-7.0015,-7.0009,-7.0082,-7.0119,-7.0189,-7.0213,-7.0269,-7.0242,-7.027,-7.0277,-7.0284,-7.0291,-7.0102,-7.0279,-7.0278,-7.0278,-7.0277,-7.0277,0,-6.9773,-6.9798,-6.9856,-6.9917,-6.9967,-6.9943,-6.9988,-7.0031,-7.0096,-7.0133,-7.0183,-7.0258,-7.0318,-7.0338,-7.0395,-7.0436,-7.0427,-7.0451,-7.0448,-7.0453,-7.0312,-7.029,-7.0458,-7.0458,-7.0458,-7.0458,-7.0458,-7.0458,-6.987,-6.9963,-6.9969,-7.0076,-7.0099,-7.0173,-7.0201,-7.0237,-7.0267,-7.0353,-7.0403,-7.0416,-7.0446,-7.0505,-7.0558,-7.0562,-7.0584,-7.0613,-7.0613,-7.0481,-7.0463,-7.0445,-7.0425,-7.0618,-7.0619,-7.075,-7.0751,-7.0752]}]]